This demonstration page uses our WeatherBlox Daily Observations layout. Learn more.

Left ArrowRight Arrow

34.16533, -84.80231

Hourly Observations for August 12, 2017

Temp ( °F °C ) Dew Point ( °F °C ) Humidity (%) Winds ( mph kmh ) Pressure ( in mb ) Visibility ( mi km ) Precip ( " mm )
12:53 am 00:53 Clear 74 23.3 74 23.3 100 100 Calm 29.95 1014 10 16 0.00 0.00
1:53 am 01:53 Clear 73 22.8 73 22.8 100 100 Calm 29.95 1014 9 14 0.00 0.00
2:53 am 02:53 Clear 72 22.2 72 22.2 100 100 Calm 29.95 1014 9 14 0.00 0.00
3:31 am 03:31 Partly Cloudy 71 21.7 71 21.7 100 100 Calm 30.00 1016 8 13 0.00 0.00
3:53 am 03:53 Mostly Cloudy 72 22.2 72 22.2 100 100 Calm 29.95 1014 9 14 0.00 0.00
4:13 am 04:13 Mostly Cloudy 72 22.2 72 22.2 100 100 S 3 6 29.97 1015 9 14 0.00 0.00
4:23 am 04:23 Partly Cloudy 71 21.7 71 21.7 100 100 Calm 29.97 1015 9 14 0.00 0.00
4:34 am 04:34 Mostly Cloudy 72 22.2 72 22.2 100 100 Calm 29.97 1015 9 14 0.00 0.00
4:41 am 04:41 Mostly Cloudy 72 22.2 72 22.2 100 100 Calm 29.97 1015 9 14 0.00 0.00
4:50 am 04:50 Cloudy 72 22 72 22 100 100 Calm 29.97 1015 10 16 0.00 0.00
4:53 am 04:53 Cloudy 72 22.2 72 22.2 100 100 Calm 29.94 1014 10 16 0.00 0.00
5:38 am 05:38 Partly Cloudy 72 22.2 72 22.2 100 100 Calm 29.97 1015 10 16 0.00 0.00
5:53 am 05:53 Mostly Cloudy 71 21.7 71 21.7 100 100 Calm 29.93 1014 9 14 0.00 0.00
6:34 am 06:34 Mostly Cloudy 71 21.7 71 21.7 100 100 Calm 29.97 1015 8 13 0.00 0.00
6:42 am 06:42 Mostly Cloudy 71 21.7 71 21.7 100 100 Calm 30.00 1016 7 11 0.00 0.00
6:53 am 06:53 Partly Cloudy 70 21.1 70 21.1 100 100 Calm 29.95 1014 8 13 0.00 0.00
7:00 am 07:00 Mostly Cloudy 71 21.7 71 21.7 100 100 Calm 30.00 1016 9 14 0.00 0.00
7:23 am 07:23 Cloudy 71 21.7 71 21.7 100 100 Calm 30.00 1016 7 11 0.00 0.00
7:53 am 07:53 Cloudy 73 22.8 73 22.8 100 100 Calm 29.96 1015 9 14 0.00 0.00
8:53 am 08:53 Mostly Cloudy 75 23.9 75 23.9 100 100 VRB 3 6 29.97 1015 8 13 0.00 0.00
9:08 am 09:08 Mostly Cloudy 75 23.9 75 23.9 100 100 SSW 3 6 30.00 1016 7 11 0.00 0.00
9:26 am 09:26 Mostly Cloudy 76 24.4 75 23.9 97 97 VRB 3 6 30.00 1016 7 11 0.00 0.00
9:53 am 09:53 Mostly Cloudy 79 26.1 75 23.9 88 88 VRB 3 6 29.96 1015 10 16 0.00 0.00
10:08 am 10:08 Partly Cloudy 79 26.1 75 23.9 88 88 N 5 7 29.97 1015 10 16 0.00 0.00
10:15 am 10:15 Mostly Cloudy 79 26.1 75 23.9 88 88 VRB 3 6 29.97 1015 10 16 0.00 0.00
10:53 am 10:53 Mostly Cloudy 80 26.7 75 23.9 85 85 VRB 3 6 29.96 1015 9 14 0.00 0.00
11:06 am 11:06 Mostly Cloudy 82 27.8 75 23.9 79 79 VRB 3 6 29.97 1015 8 13 0.00 0.00
11:21 am 11:21 Mostly Cloudy 81 27.2 75 23.9 82 82 VRB 5 7 29.97 1015 10 16 0.00 0.00
11:28 am 11:28 Partly Cloudy 82 27.8 75 23.9 79 79 Calm 29.97 1015 10 16 0.00 0.00
11:53 am 11:53 Mostly Sunny 82 27.8 74 23.3 77 77 Calm 29.96 1015 10 16 0.00 0.00
12:53 pm 12:53 Mostly Sunny 85 29.4 74 23.3 70 70 VRB 3 6 29.95 1014 10 16 0.00 0.00
1:53 pm 13:53 Mostly Sunny 86 30 73 22.8 65 65 Calm 29.94 1014 10 16 0.00 0.00
2:53 pm 14:53 Mostly Sunny 87 30.6 73 22.8 63 63 VRB 3 6 29.92 1013 10 16 0.00 0.00
3:53 pm 15:53 Mostly Cloudy 86 30 74 23.3 67 67 Calm 29.91 1013 10 16 0.00 0.00
4:53 pm 16:53 Cloudy 83 28.3 72 22.2 70 70 NW 3 6 29.90 1012 10 16 0.00 0.00
5:10 pm 17:10 Cloudy with Light Rain 76 24.4 75 23.9 97 97 VRB 5 7 29.91 1013 3 4 0.03 0.76
5:17 pm 17:17 Cloudy with Light Rain 76 24.4 75 23.9 97 97 SSW 5 7 29.91 1013 4 6 0.04 1.02
5:53 pm 17:53 Mostly Sunny 82 27.8 78 25.6 88 88 Calm 29.89 1012 10 16 0.04 1.02
6:53 pm 18:53 Sunny 80 26.7 78 25.6 94 94 Calm 29.90 1013 10 16 0.00 0.00
7:53 pm 19:53 Mostly Cloudy 79 26.1 74 23.3 85 85 Calm 29.91 1013 10 16 0.00 0.00
8:53 pm 20:53 Clear 76 24.4 74 23.3 94 94 Calm 29.91 1013 10 16 0.00 0.00
9:53 pm 21:53 Mostly Cloudy 76 24.4 75 23.9 97 97 Calm 29.92 1013 10 16 0.00 0.00
10:53 pm 22:53 Cloudy 76 24.4 75 23.9 97 97 Calm 29.93 1014 10 16 0.00 0.00
11:53 pm 23:53 Cloudy 76 24.4 75 23.9 97 97 Calm 29.93 1013 10 16 0.00 0.00

Powered by AerisWeather